Regional Weather Roundup
Issued by NWS

Home | Current Version | Previous Version | Graphics & Text | Print | Product List | Glossary On
Versions: 1 2 3 4 5 6 7 8 9 10 11 12 13 14 15 16 17 18 19 20 21 22 23 24 25 26 27 28 29 30 31 32 33 34 35 36 37 38 39 40 41 42 43 44 45 46 47 48 49 50
000
ASUS44 KMEG 051600
RWRTN
TENNESSEE HOURLY STATE WEATHER ROUNDUP
NATIONAL WEATHER SERVICE MEMPHIS TN
1100 AM CDT TUE MAY 05 2015

TNZ002-004-019-021-049-052-054-088>092-051700-
WEST TENNESSEE

CITY           SKY/WX    TMP DP  RH WIND       PRES   REMARKS
MEMPHIS INTL   MOSUNNY   81  58  45 S9        30.24S
NWS MEMPHIS      N/A     80 N/A N/A MISG        N/A
JACKSON        MOSUNNY   80  59  48 SW9       30.26S
DYERSBURG      SUNNY     81  54  39 SW9       30.26S
PARIS          SUNNY     81  57  44 S9        30.27S
LEXINGTON      SUNNY     77  59  53 VRB3      30.27S
$$

TNZ008-025-027-028-033-062-065-066-051700-
NORTH MIDDLE TENNESSEE

CITY           SKY/WX    TMP DP  RH WIND       PRES   REMARKS
NASHVILLE      MOSUNNY   81  55  40 SW3       30.30S
CLARKSVILLE    SUNNY     79  56  45 SW10      30.28S
COOKEVILLE     SUNNY     79  57  47 S5        30.32S
CROSSVILLE     PTSUNNY   76  50  40 CALM      30.36S
$$

TNZ061-075-076-078-094-096-097-051700-
SOUTH MIDDLE TENNESSEE

CITY           SKY/WX    TMP DP  RH WIND       PRES   REMARKS
FAYETTEVILLE     N/A     75  54  46 SW5       30.32S
TULLAHOMA      SUNNY     77  54  44 CALM      30.33S
WINCHESTER     SUNNY     77  54  44 SW3       30.32S
MCMINNVILLE    SUNNY     79  57  47 VRB5      30.32F
COLUMBIA       SUNNY     81  59  47 S3        30.29S
SHELBYVILLE    SUNNY     81  57  44 SW6       30.32S
$$

TNZ017-018-042-046-047-051700-
NORTHEAST TENNESSEE

CITY           SKY/WX    TMP DP  RH WIND       PRES   REMARKS
TRI CITIES     SUNNY     76  53  44 W5        30.36F
ELIZABETHTON   SUNNY     75  52  43 W9        30.36F
$$

TNZ012-013-036-069-073-074-051700-
CENTRAL EAST TENNESSEE

CITY           SKY/WX    TMP DP  RH WIND       PRES   REMARKS
KNOXVILLE      MOSUNNY   75  55  49 CALM      30.34S
OAK RIDGE      SUNNY     76  54  46 VRB5      30.35F
GATLINBURG     SUNNY     75  52  43 NW5       30.34S
$$

TNZ083-085-099-051700-
SOUTHEAST TENNESSEE

CITY           SKY/WX    TMP DP  RH WIND       PRES   REMARKS
CHATTANOOGA    MOSUNNY   76  55  48 CALM      30.33F
$$

SKY/WX REPORTED AS FAIR MEANS FEW OR NO CLOUDS BELOW
12 THOUSAND FEET.




USA.gov is the U.S. government's official web portal to all federal, state and local government web resources and services.